{"data":{"norad_id":66386,"epoch":"2026-09-20T15:25:07.580640Z","epoch_age_seconds":81154,"freshness":"FRESH","line1":"1 66386U 25257G   26263.64244885  .00028148  00000+0  84112-3 0  9991","line2":"2 66386  53.1582  29.2182 0001002  74.2344 285.8769 15.34398963 49612","mean_motion":15.34398963,"eccentricity":0.0001002,"inclination_deg":53.1582,"raan_deg":29.2182,"arg_perigee_deg":74.2344,"mean_anomaly_deg":285.8769,"bstar":0.00084112,"rev_number":4961,"period_min":93.847821506902,"perigee_km":462.02086989048,"apogee_km":463.39177489228,"semimajor_km":6840.8433223914,"source":"CELESTRAK","updated_at":"2026-09-21T09:00:35.886297Z"}}